Location: Unspecified
(0.0000°N, 0.0000°E)
Time: 18:29:02
(UTC+00:00)

Transit 2A - All Passes

Search period start: 18 April 2019 00:00
Search period end: 28 April 2019 00:00
Orbit: 591 x 968 km, 66.7° (Epoch: 17 April)

Date Brightness Start Highest point End Pass type
(mag) Time Alt. Az. Time Alt. Az. Time Alt. Az.
18 Apr - 02:16:29 10° NNW 02:22:00 66° ENE 02:26:56 10° SSE night (unlit)
18 Apr - 13:10:12 10° SE 13:12:04 12° ESE 13:13:59 10° E daylight
18 Apr - 14:49:56 10° SW 14:54:49 43° WNW 15:00:12 10° N daylight
19 Apr - 01:42:46 10° N 01:47:54 38° ENE 01:52:32 10° SE night (unlit)
19 Apr - 03:28:29 10° W 03:30:39 13° WSW 03:32:46 10° SW night (unlit)
19 Apr - 14:15:36 10° SSW 14:20:43 73° WNW 14:26:26 10° NNE daylight
20 Apr - 01:09:29 10° NNE 01:13:46 23° ENE 01:17:43 10° ESE night (unlit)
20 Apr - 02:52:37 10° WNW 02:56:40 22° WSW 03:00:27 10° SSW night (unlit)
20 Apr - 13:41:35 10° SSW 13:46:40 67° ESE 13:52:20 10° NNE daylight
21 Apr - 00:37:00 10° NE 00:39:36 13° ENE 00:42:04 10° E night (unlit)
21 Apr - 02:17:42 10° NW 02:22:41 37° WSW 02:27:12 10° S night (unlit)
21 Apr - 13:07:53 10° S 13:12:40 39° ESE 13:17:55 10° NE daylight
21 Apr - 14:53:01 10° W 14:55:47 14° WNW 14:58:40 10° NW daylight
22 Apr - 01:43:16 10° NNW 01:48:40 65° WSW 01:53:32 10° S night (unlit)
22 Apr - 12:34:36 10° SSE 12:38:41 23° ESE 12:43:04 10° NE daylight
22 Apr - 14:17:26 10° WSW 14:21:37 24° WNW 14:26:07 10° NNW daylight
23 Apr - 01:09:09 10° NNW 01:14:38 74° ENE 01:19:32 10° SSE night (unlit)
23 Apr - 12:02:05 10° SE 12:04:41 14° ESE 12:07:24 10° ENE daylight
23 Apr - 13:42:37 10° SW 13:47:28 39° WNW 13:52:49 10° N daylight
24 Apr - 00:35:22 10° N 00:40:32 42° ENE 00:45:13 10° SE night (unlit)
24 Apr - 02:22:10 10° W 02:23:16 11° WSW 02:24:22 10° WSW night (unlit)
24 Apr - 13:08:12 10° SSW 13:13:22 65° WNW 13:19:06 10° NNE daylight
25 Apr - 00:01:59 10° NNE 00:06:25 25° ENE 00:10:29 10° ESE night (unlit)
25 Apr - 01:45:36 10° WNW 01:49:17 19° WSW 01:52:44 10° SSW night (unlit)
25 Apr - 12:34:08 10° SSW 12:39:19 76° ESE 12:45:05 10° NNE daylight
25 Apr - 23:29:16 10° NNE 23:32:15 15° ENE 23:35:04 10° E night (unlit)
26 Apr - 01:10:33 10° NW 01:15:17 32° WSW 01:19:38 10° S night (unlit)
26 Apr - 12:00:21 10° S 12:05:18 44° ESE 12:10:44 10° NE daylight
26 Apr - 13:46:07 10° W 13:48:27 13° WNW 13:50:53 10° NW daylight
27 Apr - 00:36:00 10° NNW 00:41:18 57° WSW 00:46:03 10° S night (unlit)
27 Apr - 11:26:58 10° SSE 11:31:18 27° ESE 11:36:00 10° NE daylight
27 Apr - 13:10:15 10° WSW 13:14:16 21° WNW 13:18:36 10° NNW daylight
